sat.trackr.live / text

‹ back to catalog

ONEWEB-0382

NORAD 49308 · 2021-090AF

PAYLOAD ACTIVE UNKNOWN

§ Identity

Operator
Country
UK
Launch date
2021-10-14
Launch site
VOSTO
Launch vehicle
Mass (kg)
RCS (m²)

Purposes: comms

External: N2YO · Heavens-Above · Gunter

§ Orbital elements

Epoch: 2026-09-13T00:33:38.788704Z

Period
109.03 min
Inclination
87.9136°
Eccentricity
0.0002231
Mean motion
13.20773252 rev/d
Perigee alt
1,180.1 km
Apogee alt
1,183.5 km
Semi-major
7,559.9 km
B*
2.1903e-4
RAAN
256.9138°
Arg perigee
94.6640°
Mean anomaly
265.4748°
Rev number
24,141

§ Raw data

ONEWEB-03821 49308U 21090AF  26256.02336561  .00000102  00000+0  21903-3 0  99932 49308  87.9136 256.9138 0002231  94.6640 265.4748 13.20773252241411

JSON: /api/v1/satellites/49308 · /tle

For live sub-satellite position, see the globe view (requires WebGL).

§ Visibility from observer

Set your observer location to see the next 7 days of passes ≥ 10°. The values pass through the URL so the page stays shareable.

No JS? Fill the form by hand. The geolocation button needs JavaScript.